Location: Grossmotten
(48.5500°N, 15.3833°E)
Time: 19:25:41
(UTC+00:00)

Cosmos 494 Rocket - Pass Details

Date: 15 November 2019
Orbit: 741 x 771 km, 74.1° (Epoch: 04 December)

Event Time Altitude Azimuth Distance (km) Brightness Sun altitude
Rises 05:14:52 0° 338° (NNW) 3,257 6.9 -8.6°
Reaches altitude 10° 05:17:17 10° 341° (NNW) 2,324 6.1 -8.2°
Maximum altitude 05:22:33 69° 65° (ENE) 825 4.4 -7.4°
Drops below altitude 10° 05:27:45 10° 149° (SSE) 2,295 7.3 -6.6°
Sets 05:30:07 0° 151° (SSE) 3,212 8.1 -6.2°
